sat.trackr.live / text

‹ back to catalog

CANX-4

NORAD 40055 · 2014-034C

PAYLOAD ACTIVE UNKNOWN

§ Identity

Operator
Country
CA
Launch date
2014-06-30
Launch site
SRILR
Launch vehicle
Mass (kg)
RCS (m²)
0.10

Purposes: tech_demo

External: N2YO · Heavens-Above · Gunter

§ Orbital elements

Epoch: 2026-09-20T02:57:46.524096Z

Period
97.21 min
Inclination
98.2954°
Eccentricity
0.0014009
Mean motion
14.81400152 rev/d
Perigee alt
615.1 km
Apogee alt
634.7 km
Semi-major
7,003.0 km
B*
7.3746e-5
RAAN
141.8528°
Arg perigee
67.7816°
Mean anomaly
292.4880°
Rev number
65,858

§ Raw data

CANX-41 40055U 14034C   26263.12345514  .00000520  00000+0  73746-4 0  99972 40055  98.2954 141.8528 0014009  67.7816 292.4880 14.81400152658582

JSON: /api/v1/satellites/40055 · /tle

For live sub-satellite position, see the globe view (requires WebGL).

§ Visibility from observer

Set your observer location to see the next 7 days of passes ≥ 10°. The values pass through the URL so the page stays shareable.

No JS? Fill the form by hand. The geolocation button needs JavaScript.

§ Radio — SatNOGS DB

ModeDescriptionDownlinkUplink
BPSK Telem 145.890 MHz
BPSK Telem 2.234 GHz

2 transmitters · refreshed weekly from db.satnogs.org